Location: Buch
(50.1863°N, 11.0141°E)
Time: 18:44:05
(UTC+00:00)

ATLAS 3B R/B - Pass Details

Date: 18 January 2020
Orbit: 1027 x 1168 km, 63.8° (Epoch: 09 February)

Event Time Altitude Azimuth Distance (km) Brightness Sun altitude
Exits shadow 05:38:08 12° 319° (NW) 2,682 4.3 -13.9°
Maximum altitude 05:44:24 76° 45° (NE) 1,097 2.8 -12.9°
Drops below altitude 10° 05:51:21 10° 132° (SE) 2,934 6.2 -11.8°
Sets 05:54:03 0° 134° (SE) 3,909 7.0 -11.4°
